Location: Powder Track
(41.8531°N, 72.3584°W)
Time: 00:18:30
(UTC+00:00)

SR - All Passes

Search period start: 29 July 2021 00:00
Search period end: 08 August 2021 00:00
Orbit: 577 x 878 km, 66.7° (Epoch: 28 July)

Date Brightness Start Highest point End Pass type
(mag) Time Alt. Az. Time Alt. Az. Time Alt. Az.
29 Jul - 11:12:28 10° SSW 11:18:15 66° ESE 11:23:49 10° NE daylight
29 Jul - 12:56:10 10° W 13:00:46 24° NW 13:05:10 10° N daylight
29 Jul - 19:54:10 10° NNW 19:58:50 46° NE 20:03:07 10° SE daylight
29 Jul - 21:37:10 10° WNW 21:40:25 19° WSW 21:43:29 10° SSW daylight
30 Jul - 10:23:22 10° S 10:28:36 34° ESE 10:33:38 10° NE daylight
30 Jul - 12:05:10 10° WSW 12:10:37 40° NW 12:15:49 10° NNE daylight
30 Jul - 19:04:45 10° N 19:08:43 25° NE 19:12:27 10° ESE daylight
30 Jul - 20:46:31 10° NW 20:50:57 41° WSW 20:55:03 10° S daylight
31 Jul - 09:35:18 10° SSE 09:39:05 18° ESE 09:42:47 10° ENE daylight
31 Jul - 11:14:49 10° SW 11:20:39 73° WNW 11:26:13 10° NNE daylight
31 Jul - 13:00:22 10° WNW 13:03:38 15° NW 13:06:48 10° N daylight
31 Jul - 18:15:47 10° N 18:18:24 14° NE 18:20:55 10° ENE daylight
31 Jul - 19:56:29 10° NNW 20:01:16 90° ENE 20:05:40 10° SSE daylight
01 Aug - 10:25:06 10° SSW 10:30:51 62° ESE 10:36:21 10° NE daylight
01 Aug - 12:08:37 10° WSW 12:13:18 25° NW 12:17:48 10° N daylight
01 Aug - 19:06:47 10° NNW 19:11:22 43° NE 19:15:36 10° SE daylight
01 Aug - 20:49:37 10° WNW 20:53:00 20° WSW 20:56:14 10° SSW daylight
02 Aug - 09:36:06 10° S 09:41:12 32° ESE 09:46:07 10° NE daylight
02 Aug - 11:17:41 10° SW 11:23:11 42° NW 11:28:24 10° NNE daylight
02 Aug - 18:17:24 10° N 18:21:15 23° NE 18:24:51 10° E daylight
02 Aug - 19:59:03 10° NW 20:03:31 44° WSW 20:07:40 10° S daylight
03 Aug - 08:48:11 10° SE 08:51:42 17° ESE 08:55:09 10° ENE visible
03 Aug - 10:27:24 10° SW 10:33:15 77° WNW 10:38:47 10° NNE daylight
03 Aug - 12:12:44 10° WNW 12:16:09 16° NW 12:19:27 10° N daylight
03 Aug - 17:28:32 10° N 17:30:54 13° NE 17:33:10 10° ENE daylight
03 Aug - 19:09:03 10° NNW 19:13:50 83° ENE 19:18:12 10° SSE daylight
04 Aug - 09:37:44 10° SSW 09:43:27 57° ESE 09:48:54 10° NE daylight
04 Aug - 11:21:05 10° WSW 11:25:51 26° NW 11:30:24 10° N daylight
04 Aug - 18:19:23 10° NNW 18:23:54 40° NE 18:28:03 10° ESE daylight
04 Aug - 20:02:05 10° WNW 20:05:36 22° WSW 20:08:57 10° SSW daylight
05 Aug - 08:48:50 10° S 08:53:49 30° ESE 08:58:37 10° NE visible
05 Aug - 10:30:12 10° SW 10:35:44 45° NW 10:41:00 10° NNE daylight
05 Aug - 12:18:37 10° NW 12:19:09 10° NNW 12:19:40 10° NNW daylight
05 Aug - 17:30:04 10° N 17:33:45 21° NE 17:37:13 10° E daylight
05 Aug - 19:11:36 10° NW 19:16:05 48° WSW 19:20:16 10° S daylight
06 Aug - 08:01:06 10° SE 08:04:20 15° ESE 08:07:30 10° ENE visible
06 Aug - 09:39:59 10° SSW 09:45:49 82° WNW 09:51:21 10° NNE daylight
06 Aug - 11:25:06 10° W 11:28:39 17° NW 11:32:06 10° N daylight
06 Aug - 16:41:19 10° N 16:43:23 13° NE 16:45:23 10° ENE daylight
06 Aug - 18:21:38 10° NNW 18:26:22 77° ENE 18:30:44 10° SE daylight
06 Aug - 20:06:58 10° W 20:07:32 10° WSW 20:08:06 10° WSW daylight
07 Aug - 08:50:24 10° S 08:56:03 54° ESE 09:01:25 10° NE visible
07 Aug - 10:33:33 10° WSW 10:38:23 27° NW 10:43:00 10° N daylight
07 Aug - 17:32:00 10° NNW 17:36:25 37° NE 17:40:30 10° ESE daylight
07 Aug - 19:14:33 10° NW 19:18:11 23° WSW 19:21:38 10° SSW daylight
